Погода в Нижнем Кисляе

Россия / Воронежская область     50°51′04″N   40°09′57″E
темп.,
°C
ветер,
м/с
пор.,
м/с
влажн.,
%
обл.,
%
осадки,
мм/ч
давл.,
гПа
погр.,
м
11 апреля, вс
вс1100:00+5с4107098 0.0 1025235
03:00+4с4127260 0.0 1026286
06:00+3ссв5137396 0.0 1026342
09:00+8ссв8135699 0.0 1026661
12:00+12ссв81041100 0.0 1026955
15:00+12ссв8104346 0.0 1026997
18:00+11ссв71158100 0.0 10251039
21:00+9св61085100 0.0 1026406
12 апреля, пн
пн1200:00+8св5118998 0.0 1026334
03:00+7св51197100 0.0 1025246
06:00+7св5129633 0.0 1025244
09:00+14всв696732 0.0 1025377
12:00+21вюв710335 0.0 10241017
15:00+22вюв893092 0.0 10231629
18:00+19вюв6114041 0.0 1024455
21:00+14вюв5135727 0.0 1025342
13 апреля, вт
вт1300:00+13вюв5144934 0.0 1025290
03:00+11вюв41158100 0.0 1025220
06:00+10вюв5126224 0.0 1026224
09:00+16вюв6104215 0.0 1025472
12:00+20юв8122872 0.0 10241413
15:00+21юв912265 0.0 10232021
18:00+19вюв712365 0.0 1023637
21:00+15вюв61546100 0.0 1024398
14 апреля, ср
ср1400:00+13вюв51349100 0.0 1023259
03:00+11вюв4115393 0.0 1022222
06:00+9вюв4106248 0.0 1022194
09:00+15вюв6104075 0.0 1021558
12:00+19юв782576 0.0 10201482
15:00+21юв682393 0.0 10182193
18:00+18вюв593599 0.0 1018320
21:00+14вюв4104779 0.0 1018164
15 апреля, чт
чт1500:00+12вюв385661 0.0 1018119
03:00+11вюв3459100 0.0 101763
06:00+10вюв3662100 0.0 1017108
09:00+16вюв4746100 0.0 1016383
12:00+19юв453099 0.0 10151509
15:00+20ююв4524100 0.0 10142244
18:00+19вюв3634100 0.0 1013164
21:00+15юв364399 0.0 1013109